Weather in Leshan

China     29°34′19″N   103°43′56″E
temp.,
°C
wind,
m/s
gust,
m/s
humid.,
%
clouds,
%
prec.,
mm/h
press.,
hPa
HPBL,
m
22 may, sun
sun2223:00+19ssw1185100 0.1 101011
02:00+18s1187100 0.1 100927
05:00+17ssw1291100 0.2 100851
08:00+17sse2391100 1.0 100990
11:00+19se1384100 0.0 1009198
14:00+24ese22597 0.0 1007916
17:00+25ese2255100 0.0 10051365
20:00+20se248070 0.0 100680
23 may, mon
mon2323:00+18sse118523 0.0 100812
02:00+17se119052 0.0 100711
05:00+17sse11945 0.0 100611
08:00+20e008334 0.0 1008228
11:00+26ene11595 0.0 1008978
14:00+28ene2247100 0.0 10061788
17:00+28ene224795 0.0 10041696
20:00+23se1172100 0.0 100617
24 may, tue
tue2423:00+22s007445 0.0 100911
02:00+22wsw117790 0.0 100811
05:00+21sw117868 0.0 100811
08:00+23s017363 0.0 1009132
11:00+27nne115740 0.0 10101000
14:00+29nne124985 0.0 10071706
17:00+30ese11487 0.0 10051632
20:00+25sse116612 0.0 100711
25 may, wed
wed2523:00+23wnw017542 0.0 100811
02:00+22sw117928 0.0 100711
05:00+21nw118273 0.0 100611
08:00+23nw017551 0.0 1007134
11:00+28e215724 0.0 10061088
14:00+30e325176 0.0 10031861
17:00+29e125580 0.1 10021307
20:00+25ene237387 0.1 100360
26 may, thu
thu2623:00+23n1180100 0.1 100627
02:00+23nne1185100 0.1 100528
05:00+22ssw0087100 0.1 100414
08:00+23ne0187100 0.2 100661
11:00+23nnw1485100 0.6 1007215
14:00+24nw1381100 1.1 1006125
17:00+23n2479100 0.3 1006116
20:00+22w118299 0.4 100711